Regional Weather Roundup
Issued by NWS

Home | Current Version | Previous Version | Graphics & Text | Print | Product List | Glossary On
Versions: 1 2 3 4 5 6 7 8 9 10 11 12 13 14 15 16 17 18 19 20 21 22 23 24 25 26 27 28 29 30 31 32 33 34 35 36 37 38 39 40 41 42 43 44 45 46 47 48 49 50
970
ASUS45 KCYS 250010
RWRWY

WYOMING REGIONAL WEATHER ROUNDUP
NATIONAL WEATHER SERVICE CHEYENNE WY
600 PM MDT MON APR 24 2017

NOTE:  "FAIR" INDICATES FEW OR NO CLOUDS BELOW 12,000 FEET
WITH NO SIGNIFICANT WEATHER AND/OR OBSTRUCTIONS TO VISIBILITY.

WYZ001-250100-
YELLOWSTONE NATIONAL PARK

CITY           SKY/WX    TMP DP  RH WIND       PRES   REMARKS
LK YELLOWSTONE   N/A     34  29  82 W8        29.63S WCI  27
6HR MIN TEMP:  32; 6HR MAX TEMP:  36; 6HR PCP:  0.04;

W YELLOWSTONE  NOT AVBL

$$
WYZ002>013-054>058-071-098>099-250100-
NORTHERN WYOMING

CITY           SKY/WX    TMP DP  RH WIND       PRES   REMARKS
JACKSON        CLOUDY    41  36  81 S13       29.62S
CODY           LGT RAIN  43  39  86 N6        29.58R
GREYBULL       LGT RAIN  50  42  74 NW15      29.52S
6HR MIN TEMP:  48; 6HR MAX TEMP:  62; 6HR PCP:  0.04;

WORLAND        CLOUDY    52  40  63 N14       29.50R
6HR MIN TEMP:  52; 6HR MAX TEMP:  62;

SHERIDAN       LGT RAIN  50  44  80 CALM      29.55R
6HR MIN TEMP:  50; 6HR MAX TEMP:  59; 6HR PCP: TRACE;

BUFFALO        CLOUDY    53  37  54 N10       29.54F
6HR MIN TEMP:  52; 6HR MAX TEMP:  58; 6HR PCP: TRACE;

GILLETTE       LGT RAIN  48  44  86 S22G30    29.56R
6HR MIN TEMP:  48; 6HR MAX TEMP:  62; 6HR PCP: TRACE;

HULETT         FAIR      54  36  50 NE8       29.58S
NEWCASTLE      LGT RAIN  52  36  54 SW21G30   29.59R

$$
WYZ014>020-022>026-101>103-250100-
CENTRAL WYOMING

CITY           SKY/WX    TMP DP  RH WIND       PRES   REMARKS
BIG PINEY      FAIR      37  35  92 NE6       29.63S WCI  32
6HR MIN TEMP:  33; 6HR MAX TEMP:  38; 6HR PCP:  0.28;

PINEDALE       MIX PCPN  32  32 100 N6        29.63F WCI  26
DUBOIS         LGT RAIN  36  30  80 W21       29.57S WCI  24
LANDER         PTSUNNY   51  30  44 W16       29.46F
6HR MIN TEMP:  51; 6HR MAX TEMP:  59;

RIVERTON       CLOUDY    51  34  52 NW20      29.49S
6HR MIN TEMP:  51; 6HR MAX TEMP:  59;

CASPER         FAIR      55  32  41 S6        29.51F
6HR MIN TEMP:  51; 6HR MAX TEMP:  59; 6HR PCP: TRACE;

DOUGLAS        FAIR      52  35  52 SE5       29.57F
6HR MIN TEMP:  50; 6HR MAX TEMP:  63; 6HR PCP: TRACE;


$$
WYZ021-027>030-104>119-250100-
SOUTHERN WYOMING

CITY           SKY/WX    TMP DP  RH WIND       PRES   REMARKS
EVANSTON       CLOUDY    38  35  89 SW20G26   29.70R WCI  28
6HR MIN TEMP:  34; 6HR MAX TEMP:  39;

KEMMERER         N/A     36  32  87 W25G32    29.66S WCI  23
FORT BRIDGER   FAIR      41  40  93 W25G35    29.69S
ROCK SPRINGS   LGT RAIN  39  36  89 W17       29.65R WCI  30
6HR MIN TEMP:  37; 6HR MAX TEMP:  53; 6HR PCP:  0.05;

DIXON            N/A     47  38  71 NE10      29.61F
RAWLINS        PTSUNNY   50  31  48 SW20      29.57F
6HR MIN TEMP:  49; 6HR MAX TEMP:  54;

SARATOGA       CLOUDY    50  32  50 S15G22    29.61F
LARAMIE        CLOUDY    47  32  56 SW22G32   29.63S
6HR MIN TEMP:  47; 6HR MAX TEMP:  55;

CHEYENNE       LGT RAIN  44  40  85 E7        29.65F
6HR MIN TEMP:  44; 6HR MAX TEMP:  61; 6HR PCP:  0.12;

TORRINGTON     CLOUDY    54  42  64 N6        29.59R
6HR MIN TEMP:  53; 6HR MAX TEMP:  68; 6HR PCP:  0.01;

PINE BLUFFS    CLOUDY    46  43  87 W13       29.67R

$$




USA.gov is the U.S. government's official web portal to all federal, state and local government web resources and services.